Miscellaneous Local Product
Issued by NWS Hastings, NE

Home | Current Version | Previous Version | Graphics & Text | Print | Product List | Glossary On
Versions: 1 2 3 4 5 6 7 8 9 10 11 12 13 14 15 16 17 18 19 20 21 22 23 24 25 26 27 28 29 30 31 32 33 34 35 36 37 38 39 40 41 42 43 44 45 46 47 48 49 50
000
AXUS43 KGID 010110
MISGRI

GID CWA HOURLY WEATHER ROUNDUP
NATIONAL WEATHER SERVICE HASTINGS NE
800 PM CDT TUE SEP 30 2014

NOTE: "FAIR" INDICATES FEW OR NO CLOUDS BELOW 12,000 FEET WITH NO
SIGNIFICANT WEATHER AND/OR OBSTRUCTIONS TO VISIBILITY.

...SOUTH CENTRAL NEBRASKA...

CITY           SKY/WX    TMP DP  RH WIND       PRES   REMARKS
GRAND ISLAND   MOCLDY    65  61  87 SE7       29.72S
HASTINGS       PTCLDY    66  58  75 SE6       29.72S
KEARNEY        PTCLDY    64  54  68 SE7       29.73R
ORD            MOCLDY    64  49  57 S7        29.69R
YORK           PTCLDY    63  63 100 SE7       29.74S
AURORA         PTCLDY    63  60  91 SE3       29.73R
LEXINGTON      CLEAR     64  49  57 S6        29.71S
HOLDREGE       CLEAR     63  55  74 CALM      29.72S
HEBRON         CLOUDY    65  62  90 E6        29.72S

...NEBRASKA PANHANDLE...

CITY           SKY/WX    TMP DP  RH WIND       PRES   REMARKS
CHADRON        CLOUDY    62  47  57 CALM      29.68R
ALLIANCE       PTCLDY    53  42  66 SW9       29.73R
SCOTTSBLUFF    MOCLDY    59  43  55 W7        29.75R
SIDNEY         CLOUDY    59  44  57 W6        29.79R

...WESTERN AND NORTH CENTRAL NEBRASKA...

CITY           SKY/WX    TMP DP  RH WIND       PRES   REMARKS
VALENTINE      PTCLDY    60  45  57 SW6       29.67R
AINSWORTH      PTCLDY    62  46  56 SW6       29.69R
ONEILL         PTCLDY    68  49  50 SE5       29.69R
BROKEN BOW     PTCLDY    63  47  55 CALM      29.71R
IMPERIAL       MOCLDY    62  46  55 S5        29.74S
NORTH PLATTE   MOCLDY    65  47  52 S5        29.72R
MCCOOK         PTCLDY    67  46  47 CALM      29.72S

...EASTERN NEBRASKA...

CITY           SKY/WX    TMP DP  RH WIND       PRES   REMARKS
NORFOLK        CLEAR     65  61  87 SE13      29.73R
SO SIOUX CITY  CLOUDY    66  63  90 SE9       29.78R
TEKAMAH        PTCLDY    65  63  93 SE8       29.77S
COLUMBUS       CLEAR     64  59  82 SE8       29.75S
ALBION         PTCLDY    65  59  81 SE7       29.72R
OMAHA EPPLEY   TSTM      66  63  90 SE13      29.79F FOG
OFFUTT AFB     LGT RAIN  65  65 100 E3        29.80S
MILLARD        TSTM      65  63  92 SE9       29.77R
LINCOLN        MOCLDY    63  61  93 E7        29.76S
NEBRASKA CITY  CLOUDY    64  64 100 NE5       29.79R FOG
BEATRICE       TSTM      64  63  95 NE5       29.75S
FALLS CITY     CLOUDY    69  64  84 N5        29.76F

...NORTHERN KANSAS...

CITY           SKY/WX    TMP DP  RH WIND       PRES   REMARKS
GOODLAND       PTCLDY    62  46  55 S8        29.77S
HILL CITY      CLEAR     68  56  65 NE7       29.70R
NORTON         CLEAR     68  50  52 E3        29.70S
PHILLIPSBURG   CLEAR     70  61  73 E7        29.70R
SMITH CENTER   CLEAR     66  63  88 E12       29.71R
BELOIT         PTCLDY    66  66 100 E9        29.70S
HAYS           CLEAR     70  61  73 NE8       29.68R
RUSSELL        MOCLDY    68  63  84 E8        29.67F
CONCORDIA      RAIN      67  67 100 NE7       29.73R FOG
SALINA         TSTM      77  62  59 SE15      29.67S
TOPEKA         PTCLDY    76  59  55 SE8       29.75S



USA.gov is the U.S. government's official web portal to all federal, state and local government web resources and services.